This is the latest recevied weather packets stored in our database for station/object N2QDK-2. If no packets are shown the sender has not sent any weather packets the latest 10 day(s).
| Time | Temp. | Humidity | Pressure | Rain* | Wind** | Luminosity | Snow |
|---|---|---|---|---|---|---|---|
| 1777591516 | 8.33° C | 70% | 1011.9 hPa | 0 mm | - | - | - |
| 1777590916 | 8.33° C | 69% | 1011.8 hPa | 0 mm | - | - | - |
| 1777590316 | 8.33° C | 69% | 1011.9 hPa | 0 mm | - | - | - |
| 1777589716 | 8.33° C | 70% | 1011.8 hPa | 0 mm | - | - | - |
| 1777589116 | 8.33° C | 68% | 1011.8 hPa | 0 mm | - | - | - |
| 1777588516 | 8.33° C | 69% | 1011.7 hPa | 0 mm | - | - | - |
| 1777587916 | 8.33° C | 68% | 1011.7 hPa | 0 mm | - | - | - |
| 1777587316 | 8.89° C | 68% | 1011.7 hPa | 0 mm | - | - | - |
| 1777586716 | 8.89° C | 67% | 1011.6 hPa | 0 mm | - | - | - |
| 1777586116 | 8.89° C | 65% | 1011.5 hPa | 0 mm | - | - | - |
| 1777585516 | 9.44° C | 64% | 1011.4 hPa | 0 mm | - | - | - |
| 1777584916 | 9.44° C | 67% | 1011.3 hPa | 0 mm | - | - | - |
| 1777584316 | 9.44° C | 66% | 1011.2 hPa | 0 mm | - | - | - |
| 1777583716 | 9.44° C | 67% | 1011.2 hPa | 0 mm | - | - | - |
| 1777583116 | 9.44° C | 64% | 1011.1 hPa | 0 mm | - | - | - |
| 1777582516 | 9.44° C | 63% | 1011.1 hPa | 0 mm | - | - | - |
| 1777581916 | 9.44° C | 64% | 1010.8 hPa | 0 mm | - | - | - |
| 1777581316 | 9.44° C | 63% | 1010.8 hPa | 0 mm | - | - | - |
| 1777580716 | 10° C | 64% | 1010.8 hPa | 0 mm | - | - | - |
| 1777580116 | 10° C | 64% | 1010.8 hPa | 0 mm | - | - | - |
| 1777579516 | 10° C | 63% | 1010.7 hPa | 0 mm | - | - | - |
| 1777578916 | 10° C | 63% | 1010.8 hPa | 0 mm | - | - | - |
| 1777578316 | 10° C | 64% | 1010.8 hPa | 0 mm | - | - | - |
| 1777577716 | 9.44° C | 66% | 1010.8 hPa | 0 mm | - | - | - |
| 1777577116 | 10° C | 64% | 1010.8 hPa | 0 mm | - | - | - |
* Rain latest hour (hover to see other rain measurements)
** Current wind speed in m/s (hover to see current wind gust speed)